Weather History for Weatherford, OK

Change the Weather History Date:

Monday, January 20, 2014

  Actual Average (KJWG) Record (KJWG)
Temperature  
Mean Temperature 46 °F -  
Max Temperature 62 °F 47 °F 81 °F (1986)
Min Temperature 30 °F 25 °F -4 °F (1962)
Degree Days  
Heating Degree Days 19    
Moisture  
Dew Point 24 °F    
Average Humidity 46    
Maximum Humidity 75    
Minimum Humidity 26    
Precipitation  
Precipitation 0.00 in - - ()
Sea Level Pressure  
Sea Level Pressure 30.02 in    
Wind  
Wind Speed 10 mph (NNW)    
Max Wind Speed 28 mph    
Max Gust Speed 39 mph    
Visibility 10 miles    
Events      
Averages and records for this station are not official NWS values.
T = Trace of Precipitation, MM = Missing Value Source: NWS Daily Summary

Daily Weather History Graph

Daily Weather History Graph

Search for Another Location

Airport:

Trip Planner

Search our weather history database for the weather conditions in past years. The results will help you decide how hot, cold, wet, or windy it might be!

Date:

Astronomy

Jan. 20, 2014 Rise Set
Actual Time 7:41 AM CST 5:50 PM CST
Civil Twilight 7:14 AM CST 6:17 PM CST
Nautical Twilight 6:43 AM CST 6:48 PM CST
Astronomical Twilight 6:12 AM CST 7:19 PM CST
Moon 10:15 PM CST (1/20) 9:52 AM CST (1/20)
Length of Visible Light 11h 03m
Length of Day
10h 08m
Waning Gibbous, 82% of the Moon is Illuminated
Jan 20
Waning Gibbous
Jan 23
Last Quarter
Jan 30
New
Feb 6
First Quarter
Feb 14
Full

Hourly Weather History & Observations

Time (CST) Temp. Windchill Dew Point Humidity Pressure Visibility Wind Dir Wind Speed Gust Speed Precip Events Conditions
12:15 AM 50.0 °F - 23.0 °F 35% 29.89 in 10.0 mi SSW 9.2 mph - N/A   Clear
12:35 AM 50.0 °F - 23.0 °F 35% 29.88 in 10.0 mi SSW 10.4 mph - N/A   Clear
12:55 AM 48.2 °F - 23.0 °F 37% 29.87 in 10.0 mi SSW 10.4 mph - N/A   Clear
1:15 AM 46.4 °F 41.1 °F 23.0 °F 40% 29.86 in 10.0 mi SSW 11.5 mph - N/A   Clear
1:35 AM 44.6 °F 39.7 °F 23.0 °F 43% 29.86 in 10.0 mi SW 9.2 mph - N/A   Clear
1:55 AM 44.6 °F 40.7 °F 23.0 °F 43% 29.85 in 10.0 mi SW 6.9 mph - N/A   Clear
2:15 AM 44.6 °F - 23.0 °F 43% 29.85 in 10.0 mi Calm Calm - N/A   Clear
2:35 AM 42.8 °F - 23.0 °F 46% 29.85 in 10.0 mi Calm Calm - N/A   Clear
2:55 AM 35.6 °F - 21.2 °F 56% 29.85 in 10.0 mi Calm Calm - N/A   Clear
3:15 AM 37.4 °F 33.8 °F 23.0 °F 56% 29.84 in 10.0 mi South 4.6 mph - N/A   Clear
3:35 AM 37.4 °F - 23.0 °F 56% 29.85 in 10.0 mi Calm Calm - N/A   Clear
3:55 AM 33.8 °F - 23.0 °F 65% 29.85 in 10.0 mi Calm Calm - N/A   Clear
4:15 AM 33.8 °F - 23.0 °F 65% 29.85 in 10.0 mi Calm Calm - N/A   Clear
4:35 AM 33.8 °F - 23.0 °F 65% 29.85 in 10.0 mi Calm Calm - N/A   Clear
4:55 AM 33.8 °F - 23.0 °F 65% 29.85 in 10.0 mi Calm Calm - N/A   Clear
5:15 AM 33.8 °F - 23.0 °F 65% 29.85 in 10.0 mi Calm Calm - N/A   Clear
5:35 AM 32.0 °F 28.7 °F 23.0 °F 69% 29.86 in 10.0 mi North 3.5 mph - N/A   Clear
5:55 AM 30.2 °F 26.7 °F 23.0 °F 75% 29.86 in 10.0 mi NNW 3.5 mph - N/A   Clear
6:15 AM 30.2 °F 24.3 °F 23.0 °F 75% 29.86 in 10.0 mi NW 5.8 mph - N/A   Clear
6:35 AM 32.0 °F 27.5 °F 23.0 °F 69% 29.86 in 10.0 mi NW 4.6 mph - N/A   Clear
6:55 AM 32.0 °F 28.7 °F 23.0 °F 69% 29.87 in 10.0 mi NW 3.5 mph - N/A   Clear
7:15 AM 30.2 °F 22.6 °F 21.2 °F 69% 29.87 in 10.0 mi NNW 8.1 mph - N/A   Clear
7:35 AM 32.0 °F 24.2 °F 23.0 °F 69% 29.88 in 10.0 mi NNW 9.2 mph - N/A   Clear
7:55 AM 32.0 °F 23.6 °F 23.0 °F 69% 29.89 in 10.0 mi NNW 10.4 mph - N/A   Clear
8:15 AM 33.8 °F 25.3 °F 23.0 °F 65% 29.89 in 10.0 mi NNW 11.5 mph - N/A   Clear
8:35 AM 35.6 °F 27.5 °F 23.0 °F 60% 29.90 in 10.0 mi NNW 11.5 mph - N/A   Clear
8:55 AM 37.4 °F 30.8 °F 23.0 °F 56% 29.91 in 10.0 mi NNW 9.2 mph - N/A   Clear
9:15 AM 41.0 °F 35.8 °F 24.8 °F 53% 29.92 in 10.0 mi NNW 8.1 mph - N/A   Clear
9:35 AM 44.6 °F 39.7 °F 26.6 °F 49% 29.92 in 10.0 mi NNW 9.2 mph - N/A   Clear
9:55 AM 50.0 °F - 26.6 °F 40% 29.93 in 10.0 mi NNW 8.1 mph - N/A   Clear
10:15 AM 53.6 °F - 28.4 °F 38% 29.95 in 10.0 mi NNW 11.5 mph - N/A   Clear
10:35 AM 55.4 °F - 26.6 °F 33% 29.96 in 10.0 mi NNW 16.1 mph 21.9 mph N/A   Clear
10:55 AM 57.2 °F - 26.6 °F 31% 29.96 in 10.0 mi North 16.1 mph 23.0 mph N/A   Clear
11:15 AM 59.0 °F - 28.4 °F 31% 29.97 in 10.0 mi North 19.6 mph 24.2 mph N/A   Clear
11:35 AM 60.8 °F - 26.6 °F 27% 29.97 in 10.0 mi North 20.7 mph 26.5 mph N/A   Clear
11:55 AM 60.8 °F - 26.6 °F 27% 29.97 in 10.0 mi North 20.7 mph 25.3 mph N/A   Clear
12:15 PM 62.6 °F - 28.4 °F 27% 29.97 in 10.0 mi NNW 17.3 mph 24.2 mph N/A   Clear
12:35 PM 62.6 °F - 26.6 °F 26% 29.96 in 10.0 mi NNW 20.7 mph 24.2 mph N/A   Clear
12:55 PM 62.6 °F - 28.4 °F 27% 29.97 in 10.0 mi North 21.9 mph 28.8 mph N/A   Clear
1:15 PM 62.6 °F - 26.6 °F 26% 29.98 in 10.0 mi North 23.0 mph 28.8 mph N/A   Clear
1:35 PM 60.8 °F - 26.6 °F 27% 29.98 in 10.0 mi North 24.2 mph 32.2 mph N/A   Clear
1:55 PM 59.0 °F - 28.4 °F 31% 30.00 in 10.0 mi North 25.3 mph 36.8 mph N/A   Clear
2:15 PM 59.0 °F - 28.4 °F 31% 30.00 in 10.0 mi North 24.2 mph 38.0 mph N/A   Clear
2:35 PM 59.0 °F - 28.4 °F 31% 30.02 in 10.0 mi North 27.6 mph 35.7 mph N/A   Clear
2:55 PM 60.8 °F - 28.4 °F 29% 30.02 in 10.0 mi NNE 24.2 mph 34.5 mph N/A   Clear
3:15 PM 59.0 °F - 26.6 °F 29% 30.04 in 10.0 mi North 25.3 mph 39.1 mph N/A   Clear
3:35 PM 59.0 °F - 28.4 °F 31% 30.07 in 10.0 mi North 25.3 mph 35.7 mph N/A   Clear
3:55 PM 59.0 °F - 24.8 °F 27% 30.08 in 10.0 mi North 25.3 mph 34.5 mph N/A   Clear
4:15 PM 59.0 °F - 26.6 °F 29% 30.09 in 10.0 mi North 21.9 mph 27.6 mph N/A   Clear
4:35 PM 57.2 °F - 24.8 °F 29% 30.10 in 10.0 mi North 23.0 mph 29.9 mph N/A   Clear
4:55 PM 57.2 °F - 24.8 °F 29% 30.12 in 10.0 mi North 20.7 mph 32.2 mph N/A   Clear
5:15 PM 55.4 °F - 23.0 °F 29% 30.14 in 10.0 mi North 15.0 mph 27.6 mph N/A   Clear
5:35 PM 53.6 °F - 24.8 °F 33% 30.15 in 10.0 mi North 17.3 mph 24.2 mph N/A   Clear
5:55 PM 51.8 °F - 24.8 °F 35% 30.17 in 10.0 mi North 12.7 mph - N/A   Clear
6:15 PM 51.8 °F - 24.8 °F 35% 30.18 in 10.0 mi North 10.4 mph - N/A   Clear
6:35 PM 50.0 °F - 24.8 °F 37% 30.20 in 10.0 mi North 9.2 mph - N/A   Clear
6:55 PM 48.2 °F - 24.8 °F 40% 30.21 in 10.0 mi North 9.2 mph - N/A   Clear
7:15 PM 46.4 °F 41.9 °F 24.8 °F 43% 30.23 in 10.0 mi North 9.2 mph - N/A   Clear
7:35 PM 44.6 °F 41.4 °F 24.8 °F 46% 30.24 in 10.0 mi North 5.8 mph - N/A   Clear
7:55 PM 42.8 °F 38.6 °F 24.8 °F 49% 30.24 in 10.0 mi NNW 6.9 mph - N/A   Clear
8:15 PM 42.8 °F 40.1 °F 23.0 °F 46% 30.25 in 10.0 mi NW 4.6 mph - N/A   Clear
8:35 PM 41.0 °F 38.0 °F 23.0 °F 49% 30.27 in 10.0 mi WNW 4.6 mph - N/A   Clear
8:55 PM 41.0 °F 38.0 °F 23.0 °F 49% 30.28 in 10.0 mi NW 4.6 mph - N/A   Clear
9:15 PM 39.2 °F 35.0 °F 23.0 °F 52% 30.28 in 10.0 mi NW 5.8 mph - N/A   Clear
9:35 PM 37.4 °F 32.1 °F 23.0 °F 56% 30.29 in 10.0 mi NW 6.9 mph - N/A   Clear
9:55 PM 37.4 °F 32.1 °F 23.0 °F 56% 30.29 in 10.0 mi NW 6.9 mph - N/A   Clear
10:15 PM 37.4 °F 32.1 °F 21.2 °F 52% 30.30 in 10.0 mi NW 6.9 mph - N/A   Clear
10:35 PM 35.6 °F 31.7 °F 21.2 °F 56% 30.31 in 10.0 mi NNW 4.6 mph - N/A   Clear
10:55 PM 33.8 °F 28.6 °F 21.2 °F 60% 30.32 in 10.0 mi NNW 5.8 mph - N/A   Clear
11:15 PM 33.8 °F 26.4 °F 21.2 °F 60% 30.33 in 10.0 mi NNW 9.2 mph - N/A   Clear
11:35 PM 33.8 °F 27.0 °F 19.4 °F 56% 30.34 in 10.0 mi NNW 8.1 mph - N/A   Clear
11:55 PM 33.8 °F 25.8 °F 19.4 °F 56% 30.36 in 10.0 mi NNW 10.4 mph - N/A   Clear